Regional Weather Roundup
Issued by NWS

Home | Current Version | Previous Version | Graphics & Text | Print | Product List | Glossary On
Versions: 1 2 3 4 5 6 7 8 9 10 11 12 13 14 15 16 17 18 19 20 21 22 23 24 25 26 27 28 29 30 31 32 33 34 35 36 37 38 39 40 41 42 43 44 45 46 47 48 49 50
000
ASUS43 KLMK 262102
RWRKY
KENTUCKY REGIONAL WEATHER ROUNDUP
NATIONAL WEATHER SERVICE LOUISVILLE KY
500 PM EDT WED APR 26 2017

NOTE "FAIR" INDICATES FEW OR NO CLOUDS BELOW 12,000 FEET
WITH NO SIGNIFICANT WEATHER AND/OR OBSTRUCTIONS TO VISIBILITY.

KYZ001>023-026-027-061>063-070>075-262200-
WESTERN AND SOUTH CENTRAL KENTUCKY

CITY           SKY/WX    TMP DP  RH WIND       PRES   REMARKS
PADUCAH        CLOUDY    80  62  54 VRB7      29.52F
HENDERSON      MOSUNNY   82  61  48 S16G25    29.53F
OWENSBORO      MOSUNNY   83  61  47 S18G24    29.55F
HOPKINSVILLE   SUNNY     82  57  42 S15       29.58F
BOWLING GREEN  SUNNY     83  58  42 S15G25    29.62F
GLASGOW        NOT AVBL
$$

KYZ024-025-028>034-038-045-046-053-262200-
NORTH CENTRAL KENTUCKY

CITY           SKY/WX    TMP DP  RH WIND       PRES   REMARKS
LOUISVILLE/SDF PTSUNNY   85  55  35 S18G25    29.58F
LOUISVILLE/LOU SUNNY     85  57  38 S9G23     29.58F
FORT KNOX      CLOUDY    82  54  37 S16G24    29.59F
$$

KYZ035>037-039>044-047>052-055>060-089>105-262200-
NORTHEAST KENTUCKY

CITY           SKY/WX    TMP DP  RH WIND       PRES   REMARKS
LEXINGTON      SUNNY     82  48  30 S17G24    29.65F
COVINGTON      MOSUNNY   81  59  47 S16G29    29.60F
FRANKFORT      SUNNY     83  52  34 S13       29.61F
$$

KYZ054-064>069-076>088-106>120-262200-
SOUTHEAST KENTUCKY

CITY           SKY/WX    TMP DP  RH WIND       PRES   REMARKS
JACKSON        CLOUDY    83  54  36 VRB5      29.70F
LONDON         CLOUDY    81  51  35 S13G18    29.70F
SOMERSET       SUNNY     82  52  34 S5        29.67F
MIDDLESBORO    CLOUDY    82  51  34 SE7       29.72S
MONTICELLO     CLEAR     84  61  45 VRB7G21   29.67F
$$





USA.gov is the U.S. government's official web portal to all federal, state and local government web resources and services.